Home > Weather > Karmiel > Past weeks

Flag for Israel Weather for the Past 2 Weeks in Karmiel, Israel

Now
55 °F

Passing clouds.


Feels Like: 55 °F
Forecast: 46 / 68 °F
Wind: 3 mph from East

Location: Beirut Airport

Current Time: Feb 12, 2016 at 4:28:05 AM

Latest Report: Feb 12, 2016 at 3:00 AM


Visibility: 5 mi

Pressure: 30.24 "Hg

Humidity: 63%

Dew point: 43 °F

Location of KarmielLocation

Historic Weather in Karmiel — Graph

°F

Karmiel Temperature Yesterday

Maximum temperature yesterday: 63 °F (at 10:00 AM)
Minimum temperature yesterday: 55 °F (at 2:00 AM)
Average temperature yesterday: 59 °F

High & Low Weather Summary for the Past Weeks

 TemperatureHumidityPressure
High75 °F (Feb 5, 1:00 PM)88% (Feb 6, 6:00 AM)30.48 "Hg (Feb 6, 6:00 AM)
Low39 °F (Jan 28, 7:00 AM)19% (Jan 28, 1:00 PM)29.86 "Hg (Feb 7, 12:00 AM)
Average58 °F58%30.23 "Hg
* Reported Jan 28 3:00 AM — Feb 12 3:00 AM, Karmiel, Weather by CustomWeather, © 2016

Note: Actual official high and low records may vary slightly from our data, if they occured in-between our weather recording intervals... More about our weather records

Advertising

Karmiel Weather History for the Previous 24 Hours

 ConditionsComfort  
Time TempWeatherWind HumidityBarometerVisibility
3:00 AM
Fri, Feb 12
55 °FPassing clouds.3 mph63%30.24 "Hg5 mi
2:00 AM57 °FPassing clouds.5 mph63%30.27 "Hg5 mi
1:00 AM59 °FPassing clouds.6 mph63%30.27 "Hg5 mi
11:00 PM
Thu, Feb 11
59 °FPassing clouds.6 mph63%30.30 "Hg5 mi
10:00 PM61 °FPassing clouds.7 mph59%30.27 "Hg5 mi
9:00 PM59 °FPassing clouds.7 mph63%30.27 "Hg5 mi
8:00 PM61 °FPassing clouds.6 mph59%30.27 "Hg5 mi
7:00 PM61 °FPassing clouds.5 mph63%30.27 "Hg5 mi
6:00 PM61 °FPassing clouds.8 mph63%30.27 "Hg5 mi
5:00 PM61 °FPartly sunny.10 mph68%30.27 "Hg5 mi
4:00 PM61 °FPartly sunny.9 mph68%30.24 "Hg5 mi
3:00 PM63 °FPartly sunny.13 mph64%30.24 "Hg5 mi
2:00 PM63 °FPartly sunny.13 mph64%30.24 "Hg5 mi
1:00 PM63 °FPartly sunny.13 mph59%30.24 "Hg5 mi
12:00 PM63 °FPartly sunny.14 mph59%30.24 "Hg5 mi
11:00 AM61 °FPartly sunny.14 mph59%30.27 "Hg5 mi
10:00 AM63 °FPartly sunny.8 mph56%30.27 "Hg5 mi
9:00 AM59 °FPartly sunny.8 mph63%30.24 "Hg5 mi
8:00 AM59 °FPartly sunny.7 mph59%30.24 "Hg5 mi
7:00 AM57 °FPartly sunny.7 mph63%30.21 "Hg5 mi
6:00 AM57 °FPassing clouds.6 mph59%30.21 "Hg5 mi
5:00 AM55 °FPassing clouds.5 mph59%30.21 "Hg5 mi
4:00 AM55 °FPassing clouds.5 mph59%30.18 "Hg5 mi
Weather by CustomWeather, © 2016

See weather overviewHow to use our weather pages